Theta_e
310 308 307 305 304 306 307 309 311 312 313 313 314 316 315 315 316 316 314 315 315 314 312 310 310 309 308 311 313 313 312 313 314 314 316 318 317 313 309 310 310 309 309 308 308 311 313 314 313 313 312 312 314 315 315 316 318 318 319 317 316 318 318 321 323 321 326 334 338 338 339 341 341 340 338 338 338 339 341 340 340 340 341 340 340 340 340 340
309 307 306 305 304 306 308 309 311 312 313 313 315 316 315 315 316 316 315 315 315 313 311 311 310 309 309 312 313 313 313 315 317 319 318 315 313 312 310 310 310 309 308 308 310 312 314 315 313 312 312 313 315 315 315 316 317 319 322 319 317 321 320 320 322 320 325 331 332 336 338 338 340 341 340 341 339 339 342 342 340 342 342 340 339 339 339 339
308 307 306 304 304 306 308 310 312 313 313 314 315 316 315 314 315 316 315 316 315 313 311 310 310 309 310 312 313 313 314 318 320 320 316 312 311 311 311 311 310 310 309 310 311 311 312 313 312 312 313 314 315 315 315 316 318 319 319 319 320 322 319 319 319 318 322 327 330 332 334 336 338 340 339 340 340 339 341 341 341 343 343 342 339 338 338 338
308 307 305 304 304 306 308 310 312 313 313 314 315 316 315 313 314 316 316 315 313 312 310 310 310 309 311 312 313 313 315 318 317 315 313 311 312 311 311 311 310 310 310 311 311 311 311 311 311 312 313 314 314 314 314 315 317 319 318 320 322 320 319 319 319 318 323 329 333 333 333 334 334 338 340 340 343 343 340 340 341 342 342 341 339 337 338 338
308 307 305 304 304 306 308 311 312 313 313 315 316 316 315 314 313 315 316 314 313 311 310 310 310 310 312 313 313 313 316 318 315 313 313 311 311 311 312 311 311 311 310 311 311 311 312 312 313 313 313 314 314 314 315 316 315 318 318 320 320 318 318 319 319 319 320 328 335 335 335 334 335 339 338 339 345 346 342 339 339 340 340 340 338 337 338 338
307 306 305 304 304 306 309 311 312 312 314 315 316 316 316 314 313 314 315 314 312 311 311 311 310 311 313 313 315 316 317 319 315 313 313 312 312 312 313 312 311 312 311 312 311 312 314 315 315 314 314 315 315 315 316 316 314 317 318 318 318 317 318 318 319 320 318 326 334 336 336 335 339 342 340 341 344 343 341 339 338 339 340 339 338 337 338 338
307 306 305 305 304 306 308 311 312 312 314 315 316 316 316 315 313 313 313 313 312 311 311 311 311 312 313 314 317 320 322 323 318 314 313 312 312 312 313 313 312 313 313 313 312 313 315 316 316 315 314 315 316 316 316 316 315 316 317 319 319 318 319 317 319 321 322 330 335 337 338 339 344 347 344 345 344 341 340 338 339 340 340 339 337 337 336 337
306 306 305 305 305 306 308 310 312 312 313 315 316 316 316 315 314 313 312 312 311 311 311 311 312 313 313 316 319 322 326 326 318 313 312 312 313 313 313 313 313 313 313 313 313 314 315 316 317 315 313 315 316 315 316 316 316 316 316 319 319 319 320 317 320 321 323 331 337 339 340 341 344 345 343 345 343 341 340 339 340 340 339 338 337 336 336 336
306 306 306 305 305 306 307 309 311 312 313 315 316 316 316 316 315 313 312 312 312 312 313 313 314 313 314 318 320 324 326 321 314 312 312 312 313 314 314 313 313 313 313 313 313 313 315 316 316 315 314 314 314 314 314 314 316 317 318 319 318 319 319 317 320 318 323 334 340 341 343 343 341 342 342 342 341 340 340 340 340 339 339 338 336 336 335 336
306 306 306 305 305 305 307 309 310 312 313 314 315 316 316 316 315 314 313 313 313 314 314 315 315 314 315 318 321 327 323 314 314 313 313 313 314 315 314 314 314 314 314 314 314 313 315 317 315 314 314 314 314 314 314 314 316 317 317 318 318 318 317 318 319 316 324 336 342 341 343 342 339 343 344 340 339 340 341 340 340 339 339 338 336 335 334 335
305 306 306 306 306 305 306 308 309 312 313 314 315 316 316 315 315 315 314 314 314 314 314 314 315 314 316 318 323 327 319 312 315 314 314 314 314 315 314 315 314 313 314 313 313 314 315 314 313 314 314 314 313 314 314 314 315 317 317 317 319 318 317 317 319 318 321 332 340 341 341 342 341 344 344 339 338 340 340 340 340 339 339 337 335 335 334 334
305 306 306 306 306 305 306 307 309 311 313 313 315 316 316 315 314 314 314 314 314 314 314 314 315 315 317 321 326 325 317 313 315 314 315 315 314 315 314 315 314 314 314 313 314 315 314 314 314 314 315 313 314 314 315 314 314 317 316 316 319 318 318 317 317 318 316 326 337 337 340 346 347 344 341 338 337 338 339 339 339 339 339 338 336 335 334 333
305 306 306 306 306 305 306 307 309 311 313 313 315 316 316 315 314 313 314 314 314 314 314 314 315 315 317 322 325 321 316 315 314 314 315 314 315 316 315 315 315 315 314 314 314 315 315 315 314 314 314 314 314 314 314 314 314 316 316 315 318 316 318 318 316 317 315 324 333 335 344 349 347 342 339 337 336 337 339 338 338 338 338 338 336 335 335 334
305 306 306 306 306 305 305 307 309 312 313 314 315 316 316 315 314 313 313 314 314 314 314 314 316 318 320 322 320 318 318 316 315 315 314 314 315 315 315 315 315 315 315 315 315 315 315 315 314 314 314 314 314 314 315 315 314 315 314 315 316 313 316 318 316 317 314 321 330 338 349 348 344 341 339 336 335 337 338 338 337 337 337 337 336 335 336 335
304 305 306 306 306 305 305 307 310 312 313 315 317 316 316 315 314 313 312 313 314 314 314 315 317 320 324 325 320 318 318 316 316 316 315 315 314 314 316 315 315 315 315 316 315 316 315 314 314 314 315 315 314 314 315 315 316 316 312 314 317 311 314 317 315 317 315 319 328 341 348 346 345 342 339 336 334 336 338 337 337 337 336 336 336 335 335 335
303 304 305 306 306 305 305 308 311 312 314 317 318 318 317 316 314 313 313 313 314 315 314 316 319 320 324 324 319 317 317 316 317 316 316 317 316 315 315 315 316 316 315 315 315 315 315 314 315 315 315 315 315 314 315 317 320 321 314 311 315 311 311 314 314 317 315 316 324 338 347 345 345 342 338 337 334 335 337 337 336 336 336 336 336 336 335 335
302 304 305 305 305 305 306 308 311 313 316 318 319 321 321 319 317 315 314 314 314 317 316 317 318 319 322 322 320 319 317 317 317 317 316 315 316 315 315 316 315 314 315 315 315 315 314 314 314 315 315 315 315 314 315 316 318 324 321 312 312 312 311 312 315 317 314 317 328 339 347 346 345 342 339 338 335 335 336 336 336 336 336 336 335 335 335 336
301 303 304 305 305 304 306 308 311 314 316 318 321 322 321 321 322 319 317 318 318 319 320 319 319 321 321 321 324 322 317 317 317 316 316 315 316 315 315 315 315 315 315 315 316 315 314 315 316 317 318 318 317 314 313 315 315 318 320 316 313 313 312 311 315 317 314 319 331 339 345 345 344 342 340 338 336 336 336 335 336 335 335 335 335 336 335 336
301 302 303 304 304 304 307 309 311 313 316 320 321 320 318 319 323 322 320 321 321 322 324 323 324 325 320 320 323 320 316 317 317 316 316 316 315 315 315 315 315 315 315 316 318 315 314 317 318 317 318 318 316 314 312 314 314 313 315 317 314 312 312 313 314 316 316 317 325 338 346 346 345 343 341 338 337 337 336 336 335 335 336 335 336 336 335 336
301 301 302 303 304 305 308 310 311 314 317 320 320 319 320 321 328 330 323 322 322 321 322 322 323 322 320 319 318 316 316 316 316 316 316 316 315 315 316 315 316 316 317 317 318 318 316 316 318 317 318 318 316 315 314 314 315 314 314 314 313 311 312 314 315 315 318 315 317 334 345 344 345 344 341 338 337 338 337 337 336 335 336 336 336 336 335 336
300 301 302 302 303 305 309 311 313 317 318 319 320 319 320 321 326 328 325 325 323 319 320 320 320 320 320 321 318 316 317 316 316 317 316 316 315 315 317 316 316 318 319 316 317 318 316 315 317 317 318 318 317 317 316 315 316 316 315 313 312 313 312 314 315 314 318 315 315 331 344 344 345 342 340 339 337 339 338 336 337 336 336 336 336 336 335 336
300 301 301 302 303 305 310 312 316 318 317 317 319 318 317 319 322 323 324 327 324 320 322 322 321 321 320 319 319 317 316 317 317 317 317 315 315 316 318 317 316 319 319 316 317 318 317 319 320 318 317 317 317 317 315 315 318 317 315 314 313 314 314 314 317 317 318 317 315 326 336 338 342 340 338 339 338 338 336 336 336 336 336 336 336 336 336 336
300 300 300 302 303 304 309 313 318 318 316 318 320 318 316 320 324 322 323 327 326 323 323 323 323 322 320 318 317 317 317 318 317 318 317 315 315 316 316 316 316 318 318 316 319 316 316 323 323 319 318 317 317 317 316 317 319 318 314 313 312 313 313 313 316 317 316 318 316 319 323 326 337 341 338 336 336 336 336 337 336 335 335 335 335 336 336 337
300 300 301 301 302 305 306 312 318 314 314 319 319 318 318 320 322 321 326 331 330 327 324 323 323 320 319 318 316 318 319 318 317 318 317 315 317 316 316 316 315 317 319 318 319 317 318 323 321 319 319 318 317 317 318 317 319 321 315 312 314 314 314 313 316 317 316 318 317 320 321 319 329 339 339 336 335 336 337 337 337 336 335 334 335 337 337 337
299 300 301 300 302 305 305 313 315 310 314 319 317 319 320 319 318 320 329 333 332 332 325 322 323 320 318 317 317 318 317 317 317 316 316 315 317 317 317 317 315 318 320 317 317 319 321 321 319 319 319 317 317 316 316 314 319 322 318 316 315 315 316 315 317 319 319 318 318 321 320 319 328 335 336 336 337 337 337 336 337 337 334 331 334 337 337 336
298 299 300 300 301 303 311 319 312 309 316 317 317 319 319 320 318 320 332 336 335 333 326 322 322 319 318 316 316 317 319 322 320 315 316 315 315 316 318 320 320 319 319 318 321 321 321 320 320 319 317 317 316 315 315 316 317 317 316 317 315 316 317 315 316 317 316 316 318 320 319 319 325 330 333 337 338 338 337 336 336 336 333 330 333 336 336 336
298 299 299 300 300 301 314 318 310 312 317 315 317 318 318 319 316 321 335 339 339 332 323 321 318 317 319 316 316 320 323 323 319 315 316 316 316 315 317 321 322 320 319 321 325 326 322 319 320 321 319 318 317 315 317 318 317 316 317 316 317 318 316 315 317 315 314 317 319 322 321 320 318 319 330 337 338 339 338 338 337 335 333 331 332 335 336 335
299 299 298 301 299 301 312 310 306 313 315 314 317 316 316 315 316 329 337 331 330 327 320 318 316 316 318 316 317 322 322 319 318 320 317 314 317 317 317 319 320 321 320 318 321 327 323 318 320 322 321 321 321 318 317 317 318 320 319 315 317 317 316 317 316 315 317 316 319 325 323 320 320 323 332 337 338 340 339 337 337 336 333 331 332 335 335 335
299 299 299 300 298 304 310 305 304 312 311 312 316 315 313 314 324 340 339 328 324 324 320 318 318 319 320 317 316 319 319 317 319 322 317 314 317 317 319 320 317 318 317 317 323 327 321 318 320 320 320 324 327 321 316 317 319 320 318 316 318 318 319 320 315 317 322 317 319 324 319 316 323 332 337 339 339 340 339 336 335 335 333 331 333 335 335 334
299 299 299 299 299 304 306 303 305 309 306 309 314 312 312 325 338 340 335 330 326 326 322 317 319 322 320 317 316 319 317 317 320 318 316 316 317 317 319 320 318 320 324 322 322 324 319 318 321 319 320 324 324 319 315 316 317 317 318 319 321 322 326 331 328 323 321 323 327 325 321 321 323 330 338 340 341 339 336 336 335 334 334 331 333 334 334 333
299 299 299 299 300 301 302 305 308 305 304 308 310 313 322 338 344 338 336 331 327 330 323 318 322 321 319 319 321 322 318 318 319 317 318 318 317 318 320 322 321 327 337 332 322 325 324 322 322 321 322 321 319 321 321 320 318 316 319 321 320 324 329 336 339 330 321 327 332 326 324 325 323 328 334 332 334 336 335 336 335 335 334 332 332 332 332 333
299 299 299 299 300 300 302 307 307 303 307 310 314 328 341 341 338 338 340 331 328 334 326 322 325 319 319 321 322 323 319 320 320 317 320 320 320 321 320 327 327 323 331 334 326 327 332 332 326 320 321 320 319 323 323 325 324 318 321 323 321 325 328 332 337 332 327 329 327 321 320 322 326 334 333 327 330 335 334 334 333 334 333 332 331 331 331 331
299 300 299 300 303 303 305 309 308 308 313 315 324 342 346 340 338 340 341 334 330 333 327 325 327 321 320 320 321 322 318 320 323 319 320 319 321 323 318 325 327 319 325 331 325 323 330 338 331 319 321 321 320 325 321 322 325 319 321 325 326 326 324 330 335 327 325 332 329 321 319 322 328 332 330 329 330 332 333 333 332 332 332 332 331 330 330 330
300 300 300 303 304 307 314 315 313 314 315 320 334 341 333 332 339 339 338 337 334 333 329 328 330 325 321 322 325 323 319 323 324 319 321 320 319 323 323 322 321 319 324 325 322 322 324 332 331 322 324 323 320 327 324 321 324 321 321 326 328 328 322 325 332 328 326 333 333 324 321 325 325 326 332 333 329 330 332 333 332 331 331 330 330 330 330 330
300 300 301 303 303 312 321 316 313 317 318 327 339 336 328 333 340 337 335 337 333 331 330 328 329 327 326 332 334 324 320 325 326 322 322 322 323 328 332 333 327 322 323 322 323 324 318 325 335 325 322 323 319 322 323 322 327 327 322 320 320 324 327 325 330 335 330 328 332 328 325 329 328 328 337 337 331 330 330 332 332 331 331 331 330 331 331 330
300 301 305 306 304 315 321 314 314 318 323 332 333 329 332 336 337 335 333 331 327 326 329 331 332 330 329 335 338 329 322 325 329 328 325 324 329 331 331 334 329 321 324 328 328 324 317 325 336 323 318 323 320 320 320 319 326 327 320 322 323 322 328 328 328 336 330 325 333 329 323 330 329 328 339 340 333 328 328 331 332 331 332 332 332 332 330 330
302 308 312 312 309 314 320 318 316 319 327 333 328 328 334 332 329 328 326 324 323 326 331 331 331 329 325 328 337 336 328 327 327 326 327 327 329 330 327 328 327 321 323 327 326 327 327 330 334 325 318 322 321 321 322 319 322 323 319 325 328 321 330 333 328 334 331 327 333 329 325 331 329 330 337 335 331 327 326 329 330 330 333 332 331 331 330 330
308 316 320 318 313 317 323 321 316 322 332 332 329 333 332 326 323 321 320 320 320 323 328 330 328 327 325 325 333 334 328 329 330 327 329 329 326 327 325 323 325 321 320 324 325 327 329 328 333 331 320 322 328 322 322 326 325 322 320 323 323 321 330 333 327 331 330 325 331 332 330 331 331 337 336 327 329 331 328 328 329 330 331 331 331 330 329 329
313 322 329 325 319 321 323 319 319 328 333 328 328 331 325 322 320 317 318 320 320 321 325 331 329 328 329 326 328 334 329 328 332 330 327 326 325 327 323 320 324 322 319 325 327 328 330 324 328 334 321 322 333 325 324 333 330 323 319 320 322 323 327 325 324 331 330 326 332 333 330 332 336 343 340 331 337 339 334 333 332 329 330 330 330 330 329 329
317 325 331 326 322 323 322 319 323 331 332 329 330 328 321 320 318 316 319 320 323 324 325 330 327 326 332 327 325 332 333 330 331 329 329 331 328 328 324 320 322 322 321 322 323 327 327 320 326 337 325 320 329 328 329 333 329 324 320 318 319 319 322 322 322 328 330 330 334 331 332 339 341 343 342 337 340 341 336 337 337 333 328 327 329 328 329 328
315 322 328 324 321 323 321 322 327 330 330 329 328 326 321 320 319 319 319 319 323 325 324 331 331 328 330 328 327 331 332 334 331 326 331 333 328 328 329 323 321 321 323 325 326 327 324 323 331 334 323 321 332 338 334 329 329 329 325 324 324 321 325 326 325 331 330 329 333 330 331 340 341 339 341 336 336 339 337 336 338 336 329 327 329 327 327 328
316 323 326 324 321 321 323 328 329 328 328 328 326 324 322 322 322 321 319 319 323 324 322 327 331 330 328 328 332 333 330 334 333 329 331 331 327 328 329 325 322 320 323 326 327 328 332 333 329 326 324 325 330 335 326 320 324 327 325 330 331 330 332 329 331 339 332 326 332 329 327 338 344 340 338 334 336 338 335 333 332 333 332 332 334 332 329 328
324 325 325 323 320 319 322 327 326 324 325 325 322 321 320 321 321 321 322 322 323 323 322 324 326 326 325 324 328 329 328 330 332 332 334 330 326 327 326 324 323 322 324 328 326 324 331 331 323 327 338 333 329 333 328 324 324 321 324 329 327 329 334 330 333 338 332 327 330 326 327 337 346 344 336 332 334 333 330 329 327 329 333 336 340 342 338 332
323 324 326 323 320 319 321 326 328 328 327 322 319 319 318 320 321 322 324 322 322 324 323 324 324 322 324 325 327 328 327 327 328 331 333 330 327 327 324 322 322 321 322 329 328 319 323 331 326 328 335 333 333 337 334 334 331 323 327 330 324 325 327 326 328 328 328 332 329 325 329 338 345 341 331 328 331 330 328 327 327 330 333 334 338 343 343 337
320 322 325 323 321 321 325 328 329 330 328 321 319 321 318 318 320 322 323 321 322 325 324 326 325 322 325 326 326 328 327 325 327 330 330 330 330 327 322 322 322 321 324 333 332 322 325 335 333 329 331 329 331 334 334 333 328 325 332 331 325 325 322 325 330 325 329 335 330 327 331 336 340 334 324 326 327 325 326 326 326 331 335 336 335 338 342 341
321 324 325 324 323 322 324 325 321 321 324 321 320 322 318 318 319 319 320 321 323 325 325 326 325 322 324 324 324 327 328 326 329 329 327 330 332 326 323 324 322 325 335 337 332 328 330 334 334 333 332 328 329 335 337 331 324 325 332 329 328 329 324 327 331 329 335 336 330 332 332 329 334 331 325 329 329 326 328 326 325 329 335 339 337 336 338 339
318 323 324 322 324 323 323 323 318 318 323 322 321 323 320 319 320 319 320 322 324 324 324 327 326 323 324 325 325 327 329 328 328 327 326 331 334 329 325 323 322 328 335 330 327 329 326 326 331 332 331 329 331 336 335 329 325 326 328 329 332 333 328 326 327 330 337 332 329 338 335 326 331 335 330 331 331 332 334 332 329 330 334 337 335 333 334 335
315 321 322 317 322 325 324 324 321 320 321 319 320 321 319 318 319 320 323 324 322 321 324 329 330 328 327 326 326 327 327 326 328 328 327 329 331 329 326 324 323 329 331 325 328 330 323 325 332 329 328 331 332 332 331 329 328 327 328 330 332 331 330 328 326 328 332 327 327 336 334 326 329 333 331 332 331 332 332 331 329 327 332 334 330 332 337 335
316 320 322 319 321 323 322 323 322 320 321 320 320 319 317 317 318 318 320 320 320 322 323 324 329 332 330 327 327 328 327 326 330 331 328 327 328 327 327 328 326 327 329 327 329 329 325 332 334 325 325 332 332 331 330 327 326 326 327 330 331 330 330 329 327 327 328 327 327 330 331 327 324 325 327 330 330 329 327 327 325 324 329 332 330 332 335 332
316 317 320 320 321 321 320 319 319 320 321 321 320 319 316 315 317 318 316 314 317 321 319 318 324 329 328 326 327 329 330 329 331 332 329 327 330 328 327 328 327 327 328 327 328 327 324 331 333 324 325 333 334 331 328 327 327 326 327 330 330 328 328 327 327 327 326 327 327 328 329 327 324 325 326 326 328 328 326 326 326 325 327 328 329 329 328 327
312 312 314 314 319 321 317 315 316 316 318 321 320 319 316 315 316 316 315 314 315 316 315 317 321 323 323 326 327 328 332 334 334 335 332 329 331 329 327 327 326 325 327 326 328 328 326 331 334 328 328 333 332 328 329 329 328 326 327 328 326 326 327 327 326 329 329 326 327 329 328 325 324 326 326 325 327 328 326 326 328 328 327 326 327 327 325 325
310 311 312 313 318 320 315 314 315 312 316 323 320 313 312 313 312 312 314 317 316 316 317 319 323 325 326 328 328 328 331 333 332 331 328 326 328 327 326 328 324 322 327 329 329 330 330 333 334 330 328 331 331 328 329 329 328 327 327 327 326 327 328 326 326 329 329 325 326 328 326 323 324 325 325 326 328 329 329 329 328 328 328 327 326 325 324 324
Wind_Speed
24 25 24 23 20 17 16 15 15 16 17 18 18 19 19 17 15 14 12 10 9 9 9 9 10 11 12 13 14 15 14 10 8 7 7 8 8 6 3 4 5 5 5 3 3 2 5 6 9 10 7 6 1 2 2 2 2 2 2 2 3 4 4 4 3 1 9 9 3 7 9 15 10 7 6 7 11 11 12 10 11 13 13 14 19 22 17 18
25 26 25 24 21 18 16 15 15 16 17 18 18 19 18 16 15 13 11 10 9 9 9 10 10 12 12 13 14 14 14 11 9 9 9 8 5 3 1 1 1 1 2 2 3 1 2 3 6 7 3 1 2 1 2 2 1 2 2 2 4 5 4 3 4 2 6 11 12 11 10 13 13 8 5 6 6 9 12 8 10 14 13 15 18 18 15 17
25 25 25 24 22 19 16 15 16 16 17 18 18 19 19 17 15 13 11 10 9 9 9 10 11 12 13 14 14 13 12 9 5 5 7 5 4 2 1 1 0 1 3 4 4 3 3 5 6 4 0 2 3 2 2 2 0 2 3 2 6 5 4 4 6 6 5 11 12 9 6 9 9 5 5 9 8 7 9 6 8 10 11 13 12 14 14 15
25 25 25 24 22 20 17 16 16 17 17 17 18 19 19 17 15 13 11 9 9 9 9 10 11 12 14 15 14 11 10 6 2 5 5 3 2 1 2 1 1 3 5 6 7 8 8 10 7 3 3 2 3 1 2 3 1 2 4 4 7 3 4 6 6 5 7 12 11 9 6 9 7 6 8 12 9 3 4 7 11 13 13 14 12 12 13 13
24 24 25 24 22 20 17 16 16 17 17 17 18 19 19 17 15 13 11 9 8 8 9 10 11 12 14 15 13 9 6 5 3 7 4 1 1 3 2 1 1 5 7 8 9 10 9 7 3 2 3 3 3 2 4 6 3 3 3 7 9 3 2 5 5 2 8 10 10 9 8 8 7 7 7 10 8 4 4 5 12 14 13 14 13 13 13 12
24 24 24 23 22 19 17 16 16 16 16 17 18 19 19 17 15 12 10 9 8 8 8 10 11 12 15 15 10 5 3 2 5 7 4 1 2 2 3 2 2 5 8 9 10 9 7 3 2 1 2 1 4 5 6 6 6 5 6 6 8 4 4 4 4 2 8 10 8 8 7 8 10 8 3 5 5 5 7 7 12 13 13 16 14 13 11 10
24 24 23 23 22 19 17 16 16 16 16 16 17 18 19 18 15 12 10 9 8 8 9 11 11 12 15 13 6 3 3 3 8 7 4 1 1 1 1 3 5 6 9 9 7 4 4 5 4 2 2 2 4 6 7 5 7 8 6 6 7 6 6 3 3 2 9 12 7 9 9 9 13 9 4 7 7 9 11 10 11 12 16 17 13 11 10 10
24 23 23 23 22 20 18 16 15 16 16 16 17 18 18 17 15 11 10 9 8 8 9 11 12 13 14 9 3 3 1 5 7 6 4 2 2 4 5 8 9 10 11 11 8 2 3 4 5 3 2 4 3 4 7 4 5 9 7 5 5 4 5 4 1 2 8 13 9 12 12 9 13 11 6 7 8 10 11 10 11 12 13 13 11 10 9 10
23 23 23 23 22 21 19 17 16 15 15 15 16 16 16 16 14 11 10 8 8 9 10 11 13 13 12 5 3 4 3 6 5 6 4 3 4 6 9 10 10 11 12 13 10 5 1 2 6 4 2 3 3 4 5 2 3 6 5 3 4 3 6 7 3 3 7 10 12 15 13 11 13 12 8 4 6 10 11 11 10 11 11 11 11 11 10 9
23 23 23 23 22 22 20 18 16 15 15 15 15 16 15 15 13 11 9 8 8 8 10 12 14 14 10 4 4 4 3 6 5 5 4 2 5 8 10 12 13 11 10 12 8 8 7 6 8 4 3 2 3 7 5 0 3 2 2 1 4 4 5 4 4 3 8 10 16 18 12 9 5 5 5 3 6 9 11 11 9 10 10 10 10 11 12 11
23 23 23 23 23 22 21 19 17 16 16 15 15 15 14 13 12 11 10 9 9 8 10 12 15 14 9 2 3 2 6 9 6 5 3 1 5 9 9 10 11 10 8 9 10 7 7 8 6 1 1 1 4 8 6 1 5 3 2 2 5 6 4 3 5 1 6 7 15 20 11 4 3 3 10 10 9 9 12 13 9 8 7 8 9 8 10 11
23 23 23 23 23 23 22 19 17 16 16 16 16 15 14 12 11 11 11 11 11 10 11 13 14 12 7 2 2 4 5 8 8 7 6 4 6 9 10 10 10 12 11 7 10 12 10 8 6 4 1 2 5 5 5 4 5 5 2 3 6 7 6 6 5 2 5 7 15 17 6 3 4 6 14 12 10 9 12 14 10 8 6 5 6 5 6 9
22 22 22 22 22 23 22 19 17 16 16 17 16 15 14 12 10 10 12 12 12 12 12 13 14 10 5 2 5 8 5 6 8 10 9 8 9 10 10 11 12 15 15 10 10 12 13 11 5 1 3 0 3 4 5 6 3 5 3 2 3 7 6 8 3 1 4 11 16 11 3 4 1 9 14 11 11 11 11 12 9 7 6 5 5 5 5 8
22 22 22 22 22 22 22 19 17 17 17 17 17 16 14 11 9 9 11 11 12 13 13 13 14 6 1 3 10 12 7 6 8 11 11 11 13 13 12 13 14 15 15 12 12 9 10 11 4 1 2 1 3 4 6 7 3 3 4 2 2 1 5 7 2 1 0 9 13 9 3 4 3 10 12 11 13 14 13 11 10 8 6 6 5 6 6 7
22 22 22 22 22 22 21 19 17 17 17 17 17 15 13 11 9 9 9 10 12 12 14 13 9 4 2 6 11 9 5 6 9 13 13 13 14 13 14 14 15 17 16 14 14 11 9 8 3 1 3 2 2 4 6 5 4 3 1 4 3 3 5 7 3 6 5 5 8 10 3 4 7 11 11 11 12 13 13 11 10 8 7 7 5 6 6 7
22 23 23 22 22 22 22 19 17 17 17 17 17 15 14 12 10 9 8 9 11 12 13 9 4 3 2 5 6 4 4 7 10 12 12 14 15 12 13 12 12 15 16 15 15 13 9 4 1 1 2 4 4 4 4 4 5 3 1 3 4 3 3 7 5 8 10 5 4 8 6 4 6 11 10 9 11 11 11 10 10 9 8 8 6 6 6 6
22 23 23 23 23 22 22 19 17 16 15 17 18 16 13 10 11 11 9 8 9 10 9 5 2 4 1 7 6 4 6 10 10 10 9 10 11 11 11 8 7 9 9 11 10 7 4 1 1 1 2 3 2 4 4 4 4 4 2 3 4 3 2 4 6 6 9 8 3 7 10 6 6 13 13 9 11 10 11 11 10 9 8 7 6 6 6 6
23 23 23 24 23 23 22 19 17 16 16 19 18 14 12 9 9 9 6 8 7 5 3 2 1 3 2 6 5 5 7 10 8 6 7 9 9 10 9 6 5 5 7 7 5 2 1 1 1 2 4 4 3 4 1 3 3 3 3 3 4 2 3 5 6 4 6 8 6 8 8 5 8 13 13 10 10 12 12 12 10 10 9 7 7 7 6 6
22 22 22 23 23 22 20 17 17 16 18 20 16 10 11 11 7 5 8 11 4 0 1 1 3 2 5 8 6 6 4 7 5 4 6 8 8 8 9 7 4 3 3 3 4 2 1 2 3 2 3 5 4 3 6 7 6 5 3 3 3 4 3 4 6 4 5 8 6 8 9 10 12 13 13 11 10 10 11 10 9 9 8 7 7 6 6 6
21 21 21 22 22 21 18 16 16 17 19 21 18 10 8 9 6 4 10 10 3 5 5 5 4 3 8 8 3 3 3 3 3 5 9 9 7 4 4 4 2 3 1 3 4 3 2 2 2 4 5 7 8 7 8 8 5 3 3 1 2 2 4 4 5 7 3 7 3 4 11 14 15 13 13 12 9 9 10 10 9 9 8 7 7 6 7 7
21 21 21 21 20 19 16 14 15 16 18 20 18 8 3 4 2 3 6 7 8 10 9 10 9 8 12 14 10 5 2 2 4 5 10 11 6 1 4 1 1 3 3 4 4 3 3 2 6 7 8 9 7 6 4 3 3 2 4 3 5 2 2 3 4 8 5 7 3 6 11 12 14 13 11 12 12 11 12 13 12 11 9 7 8 9 8 6
21 20 21 20 19 18 14 13 13 13 16 18 14 5 1 3 1 3 4 5 9 8 10 12 10 9 14 19 18 8 4 1 5 7 8 5 2 3 3 2 1 4 4 2 2 3 1 4 8 8 8 6 3 1 4 4 3 4 4 4 5 3 3 4 6 7 5 5 3 8 11 9 12 13 14 15 13 11 11 11 11 12 11 9 10 10 10 7
21 20 21 20 19 16 13 12 10 11 15 14 10 7 9 8 6 9 4 2 8 6 7 7 6 6 7 8 8 6 4 1 3 7 7 3 1 4 2 2 2 5 4 1 3 3 2 5 7 7 3 2 4 6 7 5 4 3 3 4 4 4 3 4 6 6 4 3 4 6 7 6 8 9 11 10 8 6 7 7 7 8 10 10 11 10 10 10
21 21 20 20 20 16 14 10 6 12 13 8 8 13 16 12 12 13 4 1 6 6 5 7 5 4 5 3 3 5 2 4 4 6 7 5 1 1 2 1 3 4 4 3 4 4 3 7 4 2 3 5 4 7 7 5 5 2 3 4 4 3 4 2 3 3 4 4 3 5 5 3 5 8 8 5 7 8 8 8 7 6 4 2 5 9 10 10
20 21 19 20 20 18 15 5 5 15 11 5 9 17 16 13 16 14 4 1 4 5 4 5 3 3 5 3 4 6 2 1 4 5 5 6 2 1 1 1 1 3 6 6 1 3 3 7 1 3 4 6 5 4 4 4 4 4 4 6 3 1 4 4 4 4 5 5 3 6 5 2 3 8 8 5 8 9 8 9 9 8 4 4 4 7 9 10
20 20 20 19 20 20 12 1 9 17 6 3 12 17 15 15 17 12 3 3 3 4 2 1 1 3 5 4 4 3 5 3 5 4 3 3 3 2 1 2 1 2 5 5 3 1 2 3 3 3 3 4 4 3 2 3 5 3 3 3 1 2 5 6 6 5 4 3 4 4 6 2 3 4 8 7 9 8 8 10 10 10 9 6 6 8 10 10
19 20 20 18 19 19 8 1 12 12 1 6 15 15 15 17 15 8 3 4 4 4 2 1 1 2 5 5 4 6 3 5 4 1 4 5 3 3 1 2 3 3 3 4 3 2 2 5 6 4 4 4 4 2 3 3 6 1 4 1 3 4 5 5 5 4 2 2 4 4 5 2 1 3 6 8 10 9 9 11 11 11 11 12 13 12 13 13
18 19 21 18 17 15 7 7 13 6 3 11 14 14 17 17 11 3 5 3 3 3 1 1 0 1 2 3 4 4 4 5 0 4 6 6 2 4 2 3 1 4 4 4 2 5 1 2 2 3 5 3 1 4 5 3 4 5 5 2 3 3 3 3 5 3 2 3 4 6 3 3 3 4 2 7 9 9 11 13 13 13 12 13 13 14 14 13
18 18 19 19 17 11 7 12 11 4 8 13 13 16 18 13 5 4 5 1 3 2 0 1 0 2 2 1 1 2 2 2 2 5 3 3 1 3 2 5 4 3 5 4 3 6 3 3 4 4 1 2 4 6 4 4 1 6 2 3 2 3 3 3 4 3 3 4 2 7 1 2 4 3 3 3 5 8 10 10 10 11 12 13 12 13 13 11
17 17 18 20 17 10 11 14 7 4 12 14 14 18 14 6 3 5 2 2 2 3 1 1 1 2 2 2 2 3 2 3 3 1 1 0 2 2 1 2 3 1 4 2 1 5 5 3 3 4 4 5 5 5 2 4 1 3 3 5 4 5 5 3 3 4 4 2 5 6 1 5 1 4 5 4 6 10 9 7 7 8 9 11 11 11 12 10
17 16 18 20 18 13 12 9 4 8 13 12 13 13 7 3 4 5 2 4 2 3 1 1 3 1 5 5 4 3 2 3 2 3 2 1 2 3 3 3 3 4 4 5 4 5 6 4 2 3 4 4 3 1 2 4 3 3 4 4 4 5 5 5 5 4 4 2 5 5 2 5 2 4 7 7 8 10 12 11 12 12 12 12 10 10 10 9
17 16 17 18 18 15 11 6 7 12 11 8 9 6 4 3 2 2 3 3 1 3 1 2 4 2 4 5 3 3 3 3 3 5 5 3 2 2 2 2 2 3 3 3 3 5 5 3 4 3 1 4 5 2 5 6 6 5 4 5 4 3 4 3 4 2 1 3 5 3 0 2 3 5 7 9 8 10 14 14 15 16 15 13 10 10 9 8
17 17 17 16 16 16 12 9 9 8 6 5 5 4 6 3 2 4 3 2 2 4 2 2 4 4 5 3 3 4 3 3 4 4 4 4 4 4 4 5 6 4 2 4 1 3 4 5 5 3 2 2 5 4 1 3 3 3 3 4 3 2 2 2 3 2 2 4 5 2 1 1 4 4 6 8 8 12 15 13 14 16 15 14 12 11 9 8
17 17 16 15 14 13 10 8 5 2 5 5 4 4 4 2 4 3 2 3 4 3 2 2 3 2 5 4 4 4 2 4 5 4 5 3 3 3 5 4 5 5 3 2 2 1 1 4 4 1 2 1 3 4 5 4 2 2 4 5 4 3 3 3 3 2 3 4 4 4 2 1 2 4 6 7 6 8 12 11 12 13 13 12 10 9 8 8
17 15 15 15 13 8 5 4 2 2 3 4 5 4 2 3 3 2 2 4 2 3 5 4 2 1 2 3 4 2 3 5 4 3 5 4 5 4 3 4 6 5 4 2 3 2 3 4 6 3 2 4 4 3 5 6 2 3 2 5 1 4 5 2 3 5 3 2 3 3 2 4 3 4 5 3 3 2 7 8 9 9 9 7 6 7 8 8
17 14 11 12 10 4 1 0 5 4 2 4 5 1 4 4 3 3 3 3 2 3 6 6 3 2 3 4 4 3 2 3 2 2 2 3 3 5 4 4 5 7 6 4 3 1 2 4 7 2 2 2 5 4 3 4 1 2 2 1 4 4 7 2 2 0 3 1 3 1 1 4 3 3 6 6 5 1 4 6 7 8 7 6 7 8 8 8
17 13 7 9 8 4 4 3 7 5 3 6 4 3 4 3 3 4 2 3 3 2 3 3 1 0 1 3 3 4 4 4 3 2 1 2 2 4 4 3 3 6 7 5 3 3 4 2 6 1 0 6 4 2 1 1 4 3 0 4 3 2 4 3 0 3 4 0 4 1 3 4 2 2 6 6 5 2 3 6 6 7 7 8 10 10 10 10
16 12 7 9 6 8 9 6 7 5 4 4 1 4 3 3 3 2 2 3 3 3 1 1 3 2 1 1 3 4 4 4 3 1 1 2 3 3 1 1 3 1 4 5 2 1 4 1 7 3 3 5 3 5 3 5 1 4 3 3 2 2 1 1 1 0 1 1 3 3 3 3 2 3 4 2 2 4 4 5 5 7 9 10 11 11 11 10
11 7 4 4 7 12 13 10 6 4 4 2 2 3 3 4 4 3 3 3 3 2 2 3 3 1 1 2 2 3 2 1 3 2 1 2 3 3 1 2 2 2 3 4 2 2 3 3 5 4 1 1 5 3 1 5 5 3 0 1 1 3 3 2 2 3 2 2 2 3 3 2 5 5 5 6 7 6 6 6 6 9 11 10 9 10 9 8
5 2 2 4 10 15 16 11 4 4 3 2 4 3 3 4 5 5 5 4 3 2 3 4 3 1 2 2 2 2 0 1 1 1 2 2 2 4 2 2 1 2 0 2 3 2 2 3 3 5 3 3 2 1 4 4 3 2 1 2 2 1 1 1 1 2 4 3 2 1 2 4 6 4 6 7 7 7 7 6 6 8 10 11 11 10 9 9
2 1 3 7 16 18 15 7 2 2 2 2 3 3 3 3 4 6 6 5 4 4 4 4 4 3 3 2 2 2 1 1 2 2 3 3 1 3 4 2 1 2 2 3 1 1 1 2 3 2 2 1 4 6 5 7 5 4 3 4 4 3 1 0 2 2 1 3 4 3 3 6 6 4 6 7 7 7 7 6 6 6 7 9 9 10 11 10
2 1 2 12 21 18 10 3 1 2 2 3 3 4 3 3 4 5 6 5 4 4 2 3 4 3 3 2 3 4 2 2 3 3 3 4 2 3 4 4 4 2 2 1 2 2 3 3 3 2 4 4 7 7 5 6 6 5 4 3 4 3 3 4 3 4 2 1 1 2 2 6 6 5 6 6 6 7 6 6 4 3 4 5 4 6 9 10
3 2 2 12 21 14 7 1 3 1 2 4 4 5 4 4 5 5 5 4 3 3 1 2 3 3 3 3 3 3 2 2 4 4 3 3 3 4 5 6 6 4 3 1 3 2 1 3 2 2 4 4 5 6 3 2 1 2 2 1 4 3 3 5 5 3 2 3 1 0 3 6 6 5 6 6 6 6 5 6 4 2 3 4 4 5 6 8
2 3 2 8 16 11 5 2 3 2 4 4 4 6 4 4 4 5 5 4 3 2 1 2 3 2 3 3 3 3 3 1 3 4 3 3 3 5 5 6 6 5 3 2 2 0 1 1 3 1 4 5 6 6 5 5 3 1 2 2 1 1 0 1 0 2 1 4 4 3 5 5 5 5 2 4 6 6 6 5 6 6 5 5 4 5 5 6
1 3 3 3 8 7 3 4 4 3 4 2 3 6 5 4 4 5 6 6 5 4 2 3 3 3 3 2 1 2 3 3 3 3 3 2 3 4 4 6 5 5 5 4 2 3 2 3 4 3 2 3 3 1 2 2 1 0 2 2 2 3 2 1 0 1 2 4 4 4 5 6 6 6 3 2 6 7 6 5 4 5 6 6 6 6 6 6
0 2 3 3 0 2 1 2 4 3 3 1 2 5 4 3 4 4 5 5 6 4 3 4 3 2 2 1 1 2 2 3 3 2 2 2 3 3 3 6 4 4 5 5 3 4 1 1 3 6 6 6 6 6 5 3 2 2 4 4 4 4 2 2 2 1 3 3 3 5 5 4 6 6 5 5 5 6 6 5 5 5 6 7 7 7 7 7
1 1 2 1 1 1 3 3 0 2 4 3 2 4 3 3 4 4 3 3 4 5 3 3 2 1 2 2 1 2 3 2 2 2 3 3 3 3 4 5 3 1 3 3 3 3 2 2 2 5 7 7 8 8 6 4 4 5 6 5 5 5 3 1 3 5 4 2 5 7 5 4 6 6 6 7 6 5 6 6 7 7 6 6 6 6 7 7
2 1 1 2 1 3 3 4 3 4 4 4 3 3 3 3 4 3 3 4 5 6 4 3 4 3 4 4 2 2 3 3 3 3 2 2 3 4 4 4 3 2 2 2 2 3 3 3 4 3 4 6 5 6 6 4 4 5 6 6 6 6 6 5 7 8 6 5 8 8 7 8 8 7 8 9 8 7 8 9 8 6 6 6 6 7 8 8
2 1 2 1 0 3 3 4 3 4 3 4 2 2 2 2 4 4 3 4 6 4 2 3 5 6 5 1 3 2 3 2 3 4 1 1 2 2 2 4 4 3 3 2 2 2 3 3 3 2 2 4 4 5 5 3 3 3 5 6 7 8 8 7 7 9 8 9 9 8 9 11 10 8 9 9 9 9 8 8 6 5 6 7 8 9 9 9
1 1 2 2 2 1 2 3 1 3 1 2 1 3 3 3 3 5 3 3 5 5 4 5 7 7 6 5 3 3 5 6 5 5 3 1 1 1 1 3 4 4 3 2 1 1 0 3 2 3 2 5 5 5 4 2 2 3 5 6 7 6 5 6 7 7 7 9 9 8 9 10 8 7 8 8 7 7 6 8 8 8 8 9 9 10 10 10
3 3 2 1 1 2 1 1 2 4 2 2 2 3 2 1 3 4 4 4 6 7 8 8 8 6 5 5 5 6 6 4 6 6 5 5 3 3 2 2 2 4 4 0 1 1 0 2 1 4 2 5 4 4 5 5 3 5 7 9 8 6 5 6 6 6 6 7 7 7 7 7 8 6 7 8 8 7 8 9 9 8 8 9 11 11 10 10
6 4 3 2 2 2 1 1 1 2 1 3 2 2 2 3 5 5 4 5 5 5 5 5 4 1 2 3 4 6 5 4 5 6 5 4 4 4 4 4 3 2 2 2 0 0 3 2 1 1 1 4 3 2 4 6 7 7 8 8 10 9 9 8 6 6 8 7 6 6 7 7 7 6 6 8 8 8 8 8 8 8 9 9 10 11 10 10
Wind_Direction
359 358 356 356 354 356 355 353 353 351 351 351 353 352 353 358 358 357 353 346 337 330 336 339 346 350 350 349 351 353 352 346 324 304 282 284 274 270 268 229 237 259 262 274 272 292 319 322 307 301 309 315 267 238 283 196 159 88 123 192 244 246 229 214 209 147 119 126 167 208 149 123 127 115 114 72 60 78 74 61 69 67 71 86 103 117 124 128
359 359 358 358 357 358 358 356 356 353 352 352 354 353 355 0 360 359 353 349 343 337 344 343 349 351 347 350 351 352 350 338 321 299 277 273 253 238 207 223 244 252 246 245 248 261 320 307 324 341 352 306 297 259 297 289 146 137 156 179 230 222 219 211 233 246 137 158 172 177 155 131 136 139 138 112 91 89 82 65 78 85 89 93 100 111 115 121
360 0 360 0 359 359 359 358 357 354 353 354 354 354 357 360 0 0 356 352 347 346 348 345 350 348 344 347 348 348 341 336 330 294 279 259 226 241 351 316 286 201 243 258 280 289 270 274 305 340 356 233 279 276 285 289 340 201 159 197 248 228 250 262 276 283 158 156 146 148 153 123 130 138 121 120 112 98 109 116 105 106 117 114 107 111 117 119
359 0 1 1 1 360 359 358 357 354 353 353 353 355 358 359 0 2 358 353 351 350 348 346 347 345 343 342 342 338 339 0 337 275 284 258 231 13 16 324 274 242 262 276 283 283 280 277 267 223 187 232 256 225 246 239 239 248 157 204 241 209 266 270 287 295 138 136 126 134 125 95 102 108 122 127 111 92 166 164 141 139 138 130 123 119 119 114
358 360 1 2 2 1 360 358 356 353 351 351 352 355 358 359 0 2 360 354 353 351 345 343 344 344 341 339 336 329 357 40 290 280 296 313 24 32 28 35 239 259 270 281 286 292 293 274 240 182 187 212 209 158 238 226 179 257 230 225 239 192 256 268 261 223 126 121 116 119 108 98 99 96 122 131 127 164 195 163 140 138 138 132 127 123 120 113
357 359 0 1 3 2 360 357 354 352 349 349 350 353 358 359 359 1 359 353 352 347 343 343 343 345 340 339 339 335 58 78 264 274 293 6 47 56 74 105 210 258 270 282 295 310 322 332 15 321 227 210 191 195 244 231 174 230 263 243 247 230 233 261 250 212 108 113 121 115 113 115 100 77 73 96 106 132 122 128 130 126 126 125 123 123 120 115
356 358 360 1 3 1 359 356 351 349 347 346 347 351 355 357 359 358 353 350 348 345 345 343 340 343 341 341 350 34 100 241 256 251 261 200 168 230 153 227 236 253 266 281 294 322 348 350 339 273 243 282 219 221 252 239 185 207 248 249 240 227 232 241 234 256 98 110 121 114 109 105 103 95 60 69 87 111 116 126 122 119 122 122 122 123 123 121
355 356 359 1 2 0 358 353 348 346 344 343 344 348 351 355 356 352 349 345 341 346 347 343 337 341 345 346 9 22 30 246 242 219 220 216 271 290 273 262 259 258 261 268 262 249 357 309 274 246 242 280 250 252 270 272 208 207 230 252 245 237 274 314 293 328 85 108 106 98 93 90 105 104 84 87 112 123 126 129 121 122 125 126 127 128 129 127
355 356 357 359 360 359 355 350 346 342 340 339 341 345 346 350 353 348 343 338 341 347 346 347 344 346 349 354 81 16 280 220 202 182 191 242 291 305 289 280 276 266 263 270 255 203 172 258 246 224 194 265 298 300 285 274 240 215 212 263 302 322 327 335 331 13 76 114 108 93 91 103 107 89 70 85 133 133 130 127 128 132 134 138 138 137 140 137
354 355 357 357 358 358 354 349 343 338 337 335 337 341 340 343 347 342 334 334 339 342 344 352 353 352 350 4 64 7 248 186 173 171 175 267 311 306 293 291 285 268 256 274 265 193 192 229 245 225 177 237 314 316 316 277 279 261 153 315 337 343 328 319 313 32 97 125 117 108 115 130 115 80 101 168 155 139 131 127 136 143 146 152 151 150 151 153
355 356 356 355 357 356 354 348 341 336 333 332 334 336 336 334 337 335 326 324 327 332 340 347 352 349 339 12 80 285 204 181 188 189 187 275 313 304 299 301 288 264 249 273 284 250 224 243 262 37 105 301 331 316 306 302 303 289 115 11 330 340 325 299 312 332 114 122 121 117 125 140 1 89 143 164 162 146 138 138 150 153 155 160 158 158 155 164
355 355 355 355 355 355 354 348 340 335 330 330 330 330 332 327 326 326 317 317 321 327 334 340 348 342 332 21 175 247 206 200 223 212 212 244 287 298 297 298 285 271 270 273 292 304 310 313 360 40 232 293 339 320 301 311 313 298 51 14 313 350 337 297 295 238 107 117 135 118 95 348 6 133 145 153 154 146 143 146 157 159 158 162 161 170 169 176
354 354 354 354 354 355 354 349 341 335 329 328 328 327 329 323 316 313 310 314 321 327 331 335 338 332 340 353 267 298 293 231 219 209 222 241 262 285 290 288 284 279 279 270 282 309 317 318 358 345 236 10 305 281 311 324 323 303 352 66 322 7 327 279 264 248 87 143 156 123 78 311 354 148 146 149 153 147 151 155 161 161 159 166 172 186 193 191
353 352 351 352 354 354 355 352 342 335 331 328 327 326 325 321 312 301 302 309 315 323 324 329 332 330 29 290 288 307 296 226 207 218 229 229 242 267 278 281 280 273 270 270 278 293 304 307 335 323 264 162 260 293 334 334 348 323 328 18 21 16 276 274 235 199 105 168 155 103 119 211 177 165 157 160 163 153 157 164 163 165 165 173 186 193 204 210
352 350 350 351 352 354 356 353 344 336 334 332 331 328 324 321 306 288 290 302 310 314 316 325 334 343 5 303 300 308 274 221 219 230 234 229 234 253 267 274 279 269 257 263 275 272 285 310 353 20 287 309 13 1 349 335 340 2 336 326 333 202 262 303 274 197 203 186 132 94 112 198 171 183 177 167 170 157 156 163 163 167 172 176 191 199 207 223
351 349 348 350 352 355 356 352 345 339 339 340 336 329 321 312 298 289 286 295 304 308 311 321 1 37 5 297 311 318 250 221 225 232 234 235 234 246 268 284 290 271 254 258 270 267 272 304 16 165 301 337 41 49 9 359 337 354 155 261 270 220 293 321 292 216 194 170 108 104 134 195 175 181 185 171 172 160 152 159 163 169 177 179 189 202 208 227
351 350 348 349 351 355 355 352 346 340 344 347 342 336 329 313 293 290 294 304 303 300 301 294 13 48 277 276 303 293 236 223 232 240 233 230 234 250 271 289 298 284 278 279 278 271 272 298 278 312 11 344 47 70 24 352 316 325 329 273 256 214 242 290 297 250 185 147 110 112 139 184 170 164 178 174 167 161 157 163 167 172 181 185 189 201 207 219
352 350 349 349 350 354 354 351 346 342 346 352 352 351 352 344 313 298 317 334 318 307 315 285 36 56 283 283 279 261 233 216 228 247 234 233 241 255 260 264 294 323 338 319 293 272 272 10 40 9 3 343 11 87 142 255 243 268 285 292 292 267 213 248 286 266 163 123 112 110 120 159 152 156 173 175 166 164 166 166 167 174 181 186 192 202 205 214
351 350 349 347 349 353 354 352 348 343 347 359 9 9 3 3 352 350 1 352 344 103 329 232 122 110 281 281 253 249 221 188 207 252 243 236 234 250 254 256 292 341 351 327 309 280 213 31 30 1 318 297 287 203 202 236 223 203 205 183 229 270 271 264 287 276 146 108 109 130 130 148 158 165 170 172 171 164 164 164 166 174 179 184 193 202 200 211
351 349 348 347 348 352 354 352 349 347 353 5 13 15 17 15 5 352 349 341 272 224 256 232 195 226 272 282 259 229 208 193 218 234 248 245 228 263 281 256 324 5 306 259 282 293 115 98 263 230 235 252 263 247 227 240 234 169 100 78 273 301 331 310 322 332 77 94 48 135 139 149 161 172 171 167 169 166 166 167 171 177 178 183 185 192 200 210
349 348 348 347 348 352 353 350 350 354 357 5 13 21 58 44 21 313 322 308 271 251 250 248 239 240 257 266 263 226 185 263 274 259 263 256 221 263 301 236 16 325 264 236 264 317 87 169 242 222 218 234 241 234 231 272 306 31 69 14 331 350 317 305 1 356 36 88 50 114 132 154 165 167 167 164 172 180 176 173 176 177 177 184 181 184 197 207
346 347 347 346 347 351 348 346 351 354 358 10 21 31 33 48 58 324 321 298 289 253 236 256 255 245 252 257 250 218 127 355 300 290 270 260 173 188 278 36 55 264 259 241 274 324 329 234 251 239 225 235 240 54 36 16 1 17 52 33 335 306 285 321 6 358 28 85 137 142 138 168 174 167 170 175 181 183 177 176 176 173 175 182 182 184 190 188
342 343 346 345 345 348 345 340 344 353 5 20 27 8 2 17 10 344 345 277 295 265 227 245 243 242 252 257 230 172 114 183 260 281 246 212 177 185 178 14 272 264 298 302 170 179 251 249 245 238 221 50 11 12 30 29 19 31 35 12 319 313 8 354 344 347 16 71 154 140 125 154 169 169 174 176 169 156 163 166 168 180 184 185 180 179 185 181
338 339 344 343 341 345 343 328 333 358 7 35 29 4 3 9 3 356 2 193 293 281 238 224 219 233 229 245 201 158 144 194 201 265 221 173 237 162 131 256 282 297 304 267 158 136 239 245 217 163 64 66 44 7 27 31 353 355 47 12 316 332 48 23 308 345 17 25 86 81 64 94 164 178 174 153 141 148 160 154 159 182 189 246 195 173 182 187
336 336 340 344 339 340 343 325 347 356 358 57 22 359 358 352 350 359 19 73 305 284 258 228 222 234 211 172 187 182 125 212 217 235 196 162 173 22 33 267 323 305 296 298 33 73 257 251 209 81 46 49 60 18 15 38 2 349 15 4 330 354 47 38 10 31 38 2 4 69 67 339 248 181 172 155 147 152 162 162 169 169 128 352 277 188 182 189
334 333 337 344 339 339 350 34 346 348 349 39 1 351 349 336 336 352 40 54 323 272 240 197 146 203 203 159 174 129 52 299 249 204 166 163 169 111 16 313 359 278 303 331 355 38 274 301 25 90 93 42 38 7 333 59 62 22 323 332 356 54 45 50 45 50 62 307 308 77 109 262 299 181 180 162 144 149 161 170 182 174 151 163 213 200 185 186
333 332 334 340 344 346 359 4 339 347 23 340 343 344 339 327 328 345 55 43 325 264 211 252 32 151 191 188 160 90 71 265 284 260 193 184 166 83 89 297 356 297 296 31 12 284 300 358 13 45 69 55 37 340 283 74 79 228 252 359 40 33 31 66 83 84 147 266 327 26 94 120 307 244 196 150 138 155 167 174 187 185 171 177 190 191 185 183
330 332 330 333 344 346 346 340 338 349 346 330 334 337 331 323 324 11 84 58 291 270 189 236 338 166 213 175 134 121 198 220 306 276 230 175 142 64 82 242 208 281 290 83 347 276 248 14 12 60 48 41 136 228 235 102 78 250 244 63 53 45 36 64 80 92 142 63 345 318 37 94 278 282 163 137 143 168 184 186 188 187 183 186 189 189 186 185
325 329 326 325 335 336 323 327 324 318 328 327 327 328 327 325 335 67 81 75 259 275 117 101 78 256 289 82 158 206 209 172 175 250 245 148 172 97 155 227 179 271 296 118 189 262 241 211 185 129 92 245 217 218 210 100 107 260 264 63 44 45 46 48 66 81 58 49 285 274 333 109 277 268 148 154 173 186 197 196 193 191 190 190 188 188 188 188
320 325 322 320 327 327 316 316 305 318 331 323 315 319 325 333 42 70 57 240 250 270 249 99 216 211 109 114 251 256 203 207 199 205 10 15 329 54 140 259 99 49 325 28 237 257 271 268 193 157 192 198 194 213 188 98 181 281 21 36 13 10 23 35 51 80 60 360 263 267 232 121 309 261 185 190 206 190 189 201 209 207 201 198 191 187 187 186
316 320 318 315 317 314 314 315 305 323 325 317 313 320 341 16 67 91 206 234 253 285 290 211 245 170 131 165 227 253 219 237 193 146 188 255 353 11 7 352 32 43 360 344 319 297 316 326 282 238 208 150 121 270 332 28 33 48 56 45 23 352 2 17 359 34 74 272 261 269 261 117 117 256 209 215 225 189 178 193 201 202 204 203 196 189 188 186
313 314 311 308 305 297 290 289 305 315 318 325 329 346 63 44 21 145 237 279 299 272 254 211 235 209 172 191 225 225 204 232 217 173 183 193 185 211 197 188 161 41 343 287 304 330 322 279 273 294 264 107 93 26 342 355 19 55 68 56 48 355 355 6 330 348 127 248 244 223 52 106 210 240 214 220 229 195 190 196 194 196 200 200 197 192 190 185
309 311 307 300 295 291 290 299 310 315 328 348 0 44 79 77 244 217 243 303 238 236 243 213 236 202 166 179 260 227 192 230 242 200 187 175 171 221 246 215 169 142 227 228 245 343 318 304 325 354 1 67 106 112 333 319 15 70 94 93 99 81 27 306 286 308 281 271 262 245 334 313 279 275 217 215 224 201 196 198 193 195 197 198 199 193 189 189
307 310 304 294 289 291 300 306 303 331 351 360 48 61 69 129 238 239 239 266 251 261 306 283 276 211 162 189 235 209 185 260 245 194 188 162 158 229 269 250 190 156 160 184 194 186 187 308 311 215 238 237 141 158 171 161 116 170 158 125 130 146 154 235 241 220 255 276 290 308 314 202 245 273 224 224 252 213 196 198 195 197 200 197 198 191 188 194
309 307 298 293 289 289 309 299 210 133 4 23 68 73 133 207 250 233 219 261 288 345 326 312 335 11 274 265 261 218 199 253 255 166 173 169 176 205 224 235 210 162 133 169 222 195 152 245 257 244 218 181 180 203 157 113 51 263 142 90 121 183 157 187 207 181 188 285 300 310 265 212 214 265 271 296 324 205 192 197 190 202 209 189 189 199 197 200
311 306 294 286 280 262 293 202 146 131 57 69 75 107 198 218 222 185 224 284 313 333 328 336 31 57 319 307 309 318 285 260 309 73 175 196 201 207 208 233 204 163 156 172 207 185 128 261 272 322 5 214 201 212 170 128 154 285 42 108 232 176 131 130 273 275 81 67 281 281 252 290 327 318 315 353 21 67 190 196 191 198 195 175 196 211 207 204
320 317 295 276 272 216 188 160 129 118 61 84 110 212 218 230 212 194 268 308 283 297 15 8 335 215 292 306 313 334 343 322 350 49 244 261 269 229 210 255 238 180 173 169 201 202 139 267 279 185 93 278 238 149 39 103 136 115 194 227 231 65 84 105 216 353 42 148 278 284 221 277 342 311 312 353 14 331 211 203 207 197 181 187 206 211 210 207
325 329 300 268 241 173 173 162 130 113 68 81 165 242 229 241 243 230 313 325 304 311 52 197 246 232 186 219 285 321 352 332 327 359 261 258 267 258 178 286 299 234 145 116 112 216 119 52 288 240 171 284 336 75 12 323 62 122 194 211 104 71 339 19 132 311 353 234 282 299 258 239 209 235 280 298 275 267 226 199 202 200 195 200 208 213 214 206
325 337 305 240 170 158 165 160 134 84 63 95 220 255 244 250 266 260 260 280 279 270 252 226 223 266 240 176 226 305 11 340 304 318 290 226 254 283 140 171 294 2 103 101 120 212 110 112 276 287 129 9 7 56 208 293 329 17 277 302 47 149 175 200 179 155 166 216 256 296 309 276 231 216 194 213 232 233 220 206 194 197 203 207 208 214 215 202
325 359 285 200 160 157 156 148 107 61 79 181 204 236 270 273 278 267 249 251 244 226 237 224 199 237 263 222 228 276 38 145 231 293 264 240 263 292 270 182 275 320 342 93 136 167 83 125 229 295 350 60 4 241 180 198 265 344 354 283 285 220 168 229 211 136 142 174 196 241 285 266 252 210 179 211 229 217 213 213 207 201 202 208 208 206 207 200
353 16 268 180 160 156 145 126 60 95 149 244 223 232 272 278 276 283 279 264 245 236 221 195 190 195 206 233 248 245 236 160 169 192 249 265 283 277 261 218 257 301 3 41 77 166 144 155 183 276 317 205 233 233 188 179 190 163 168 211 206 196 151 139 279 289 134 158 175 188 253 263 255 204 192 215 220 217 214 202 214 225 208 214 221 209 201 198
112 221 233 164 163 158 131 96 297 160 189 246 229 233 267 274 272 288 293 280 246 230 211 182 193 187 186 219 220 209 194 196 198 177 206 240 226 227 266 297 311 329 62 46 270 225 155 124 127 220 241 226 240 249 223 205 196 166 179 200 166 146 125 143 225 262 273 254 184 140 242 264 258 214 207 219 213 215 212 193 211 251 199 188 204 203 199 200
162 247 251 165 171 162 112 62 281 276 234 249 257 258 264 268 275 286 291 297 285 248 220 214 205 182 208 219 201 203 199 207 223 209 212 243 237 240 276 316 332 351 30 315 286 301 80 97 116 262 295 303 293 294 288 265 141 130 267 224 148 162 163 166 186 191 219 259 253 349 269 269 274 248 214 209 213 221 218 191 174 181 192 175 153 164 187 197
221 268 285 179 181 166 123 195 235 242 244 261 282 276 280 278 274 283 290 304 302 270 261 253 207 175 232 207 165 208 211 199 261 247 221 217 245 270 304 344 358 12 10 269 214 190 268 177 116 54 333 331 333 342 339 343 30 122 269 299 151 259 355 155 123 83 250 240 192 198 257 254 272 292 264 185 196 217 230 209 171 162 188 200 173 164 178 182
310 257 280 219 187 164 150 190 170 194 246 277 293 278 286 288 257 251 268 280 269 238 238 260 216 175 216 200 139 250 208 183 242 259 228 223 264 279 312 346 4 28 353 298 187 135 195 187 131 132 207 251 266 279 265 283 345 210 293 329 326 321 325 286 39 83 260 248 180 182 244 263 287 310 310 212 196 204 225 226 195 176 183 189 185 179 181 179
331 233 277 300 210 111 228 214 145 176 241 238 287 269 252 264 271 255 258 270 269 256 244 259 237 179 224 227 177 272 246 207 215 237 252 265 278 273 312 341 356 48 18 356 51 88 119 183 154 161 189 209 204 214 217 174 144 271 283 290 285 278 248 159 117 188 214 212 214 220 224 264 292 284 269 264 230 213 223 224 216 208 193 187 187 185 185 189
196 220 204 189 344 314 265 279 215 215 232 189 221 270 261 282 304 308 294 282 304 315 294 265 267 223 245 247 196 264 268 262 250 233 245 251 256 276 310 323 320 60 62 41 47 70 74 300 243 180 201 212 196 208 222 189 188 219 231 254 268 268 266 243 240 233 196 181 267 252 211 222 260 251 251 268 259 239 239 235 230 222 203 193 185 181 189 200
197 243 205 160 213 211 218 252 223 212 234 210 207 265 286 314 316 304 301 311 327 332 323 319 327 291 234 191 160 247 281 317 315 276 255 281 289 306 315 303 309 18 68 36 13 82 118 262 258 199 235 248 216 225 240 228 219 202 195 217 240 248 243 234 243 236 201 211 251 241 216 232 247 233 225 233 230 226 227 227 227 215 195 188 177 175 191 202
179 294 319 10 157 192 211 242 196 165 218 216 210 256 221 251 290 276 289 317 316 315 323 317 307 301 291 221 147 182 227 262 297 277 247 327 312 328 323 295 310 356 54 44 359 92 128 251 247 187 297 295 272 265 265 256 251 227 212 220 230 240 233 220 237 240 223 233 246 236 234 246 249 236 226 224 218 218 227 237 237 217 199 193 184 186 197 203
123 337 316 8 9 278 258 276 106 93 297 231 206 253 213 186 265 276 279 295 294 298 303 280 269 278 291 275 226 217 223 202 208 231 210 149 327 326 237 260 294 335 21 56 339 344 306 258 239 96 12 302 286 282 285 277 240 234 248 248 245 258 259 241 241 239 235 247 253 249 251 256 254 239 232 235 229 218 229 242 239 230 215 198 191 197 203 205
319 295 304 50 285 285 286 293 80 84 353 305 195 246 260 213 262 283 286 266 258 267 279 283 279 280 288 275 251 255 256 202 189 212 195 162 184 207 199 228 288 331 341 308 294 8 153 259 354 57 353 279 280 302 313 329 314 259 253 256 255 257 255 245 233 214 212 230 245 253 256 258 259 245 233 242 240 232 237 234 227 227 216 197 197 206 208 208
347 318 333 94 208 280 326 325 47 94 225 246 211 233 285 284 296 319 316 290 278 268 279 299 301 294 1 328 262 237 227 183 193 230 226 198 214 215 211 229 232 240 250 227 249 164 145 127 66 80 262 271 279 326 344 344 317 276 248 235 234 231 230 240 250 235 218 207 214 234 237 244 253 242 232 242 239 236 239 227 215 219 213 199 201 209 211 212